Tracking 30703 objects as of 12-Jun-2025
HD Live streaming from Space Station
objects crossing your sky now

FENGYUN 1C DEB

Track FENGYUN 1C DEB now!
10-day predictions


NORAD ID: 30360
Int'l Code: 1999-025ABX
Perigee: 795.1 km
Apogee: 835.9 km
Inclination: 98.8 °
Period: 101.0 minutes
Semi major axis: 7186 km
RCS: 0.0134 m2 (small)
Launch date: May 10, 1999
Source: People's Republic of China (PRC)
Launch site: Taiyaun Space Center, China (TSC)

Note: This is SATELLITE DEBRIS
Your satellite tracking list
Your tracking list is empty




NASA's NSSDC Master Catalog

Two Line Element Set (TLE):
1 30360U 99025ABX 25162.75129520  .00001959  00000-0  85185-3 0  9998
2 30360  98.7743 232.2985 0028425 321.1021 161.8094 14.25038764948037
Source of the keplerian elements: AFSPC